H1 CPF 2 NER 2024 9 6 9 250 01 glonass128 H2 1106401 9128 37867 2024 9 6 0 0 0 2024 9 9 23 45 0 900 1 1 0 0 0 1 H9 10 0 60559 0.00000 0 -10254979.120 22966694.545 4484630.351 10 0 60559 900.00000 0 -9879720.957 22310280.808 7587666.961 10 0 60559 1800.00000 0 -9467537.998 21266370.139 10544069.495 10 0 60559 2700.00000 0 -9074668.349 19849663.650 13296775.451 10 0 60559 3600.00000 0 -8754266.749 18087604.700 15792672.034 10 0 60559 4500.00000 0 -8553996.000 16019402.635 17983600.771 10 0 60559 5400.00000 0 -8513860.710 13694585.088 19827267.930 10 0 60559 6300.00000 0 -8664372.846 11171137.803 21288045.049 10 0 60559 7200.00000 0 -9025124.934 8513307.373 22337645.801 10 0 60559 8100.00000 0 -9603830.254 5789155.653 22955667.435 10 0 60559 9000.00000 0 -10395870.492 3067964.492 23129987.121 10 0 60559 9900.00000 0 -11384370.904 417595.651 22857005.715 10 0 60559 10800.00000 0 -12540801.725 -2098087.326 22141733.715 10 0 60559 11700.00000 0 -13826083.183 -4421630.522 20997716.592 10 0 60559 12600.00000 0 -15192150.798 -6504135.783 19446799.173 10 0 60559 13500.00000 0 -16583918.434 -8307053.252 17518731.423 10 0 60559 14400.00000 0 -17941559.673 -9803545.741 15250620.754 10 0 60559 15300.00000 0 -19203014.064 -10979367.400 12686238.965 10 0 60559 16200.00000 0 -20306614.529 -11833218.835 9875194.875 10 0 60559 17100.00000 0 -21193725.949 -12376562.341 6871986.725 10 0 60559 18000.00000 0 -21811283.405 -12632903.513 3734951.436 10 0 60559 18900.00000 0 -22114121.590 -12636568.226 525130.452 10 0 60559 19800.00000 0 -22066994.918 -12431025.801 -2694925.635 10 0 60559 20700.00000 0 -21646200.195 -12066829.037 -5862389.535 10 0 60559 21600.00000 0 -20840730.287 -11599258.927 -8915401.248 10 0 60559 22500.00000 0 -19652907.111 -11085775.112 -11794297.352 10 0 60559 23400.00000 0 -18098464.629 -10583382.113 -14442799.275 10 0 60559 24300.00000 0 -16206076.411 -10146025.365 -16809135.055 10 0 60559 25200.00000 0 -14016346.485 -9822129.975 -18847070.464 10 0 60559 26100.00000 0 -11580305.604 -9652388.976 -20516827.528 10 0 60559 27000.00000 0 -8957476.495 -9667896.831 -21785871.143 10 0 60559 27900.00000 0 -6213590.212 -9888708.696 -22629547.653 10 0 60559 28800.00000 0 -3418050.623 -10322887.253 -23031562.720 10 0 60559 29700.00000 0 -641254.455 -10966077.437 -22984289.544 10 0 60559 30600.00000 0 2048119.940 -11801626.437 -22488902.290 10 0 60559 31500.00000 0 4585741.173 -12801242.713 -21555333.379 10 0 60559 32400.00000 0 6914061.026 -13926164.618 -20202057.038 10 0 60559 33300.00000 0 8984457.411 -15128787.580 -18455705.015 10 0 60559 34200.00000 0 10758996.164 -16354679.472 -16350523.743 10 0 60559 35100.00000 0 12211740.491 -17544897.705 -13927685.207 10 0 60559 36000.00000 0 13329556.339 -18638509.279 -11234466.520 10 0 60559 36900.00000 0 14112383.374 -19575207.024 -8323315.527 10 0 60559 37800.00000 0 14572963.851 -20297911.803 -5250821.684 10 0 60559 38700.00000 0 14736044.228 -20755251.689 -2076612.933 10 0 60559 39600.00000 0 14637086.157 -20903814.796 1137799.633 10 0 60559 40500.00000 0 14320543.552 -20710082.512 4330206.951 10 0 60559 41400.00000 0 13837779.933 -20151963.457 7438894.560 10 0 60559 42300.00000 0 13244714.538 -19219865.448 10403820.330 10 0 60559 43200.00000 0 12599296.279 -17917261.885 13167755.884 10 0 60559 44100.00000 0 11958911.032 -16260729.799 15677371.271 10 0 60559 45000.00000 0 11377829.959 -14279458.320 17884243.757 10 0 60559 45900.00000 0 10904804.359 -12014247.690 19745773.228 10 0 60559 46800.00000 0 10580906.270 -9516039.383 21225988.432 10 0 60559 47700.00000 0 10437703.812 -6844036.627 22296230.184 10 0 60559 48600.00000 0 10495846.660 -4063490.964 22935699.682 10 0 60559 49500.00000 0 10764120.432 -1243243.811 23131862.159 10 0 60559 50400.00000 0 11239009.923 1546878.017 22880698.260 10 0 60559 51300.00000 0 11904790.612 4238707.766 22186797.835 10 0 60559 52200.00000 0 12734146.488 6768318.110 21063293.172 10 0 60559 53100.00000 0 13689290.740 9078429.342 19531631.244 10 0 60559 54000.00000 0 14723545.098 11120547.665 17621187.164 10 0 60559 54900.00000 0 15783314.301 12856745.102 15368723.847 10 0 60559 55800.00000 0 16810375.189 14261006.515 12817705.815 10 0 60559 56700.00000 0 17744385.990 15320086.544 10017478.076 10 0 60559 57600.00000 0 18525511.121 16033839.180 7022324.006 10 0 60559 58500.00000 0 19097050.847 16415004.513 3890419.185 10 0 60559 59400.00000 0 19407963.846 16488460.125 682700.787 10 0 60559 60300.00000 0 19415174.211 16289967.480 -2538325.376 10 0 60559 61200.00000 0 19085562.783 15864465.604 -5709816.097 10 0 60559 62100.00000 0 18397555.607 15263984.295 -8769834.815 10 0 60559 63000.00000 0 17342239.176 14545265.999 -11658582.254 10 0 60559 63900.00000 0 15923952.435 13767198.571 -14319587.327 10 0 60559 64800.00000 0 14160328.048 12988169.736 -16700832.726 10 0 60559 65700.00000 0 12081779.412 12263457.626 -18755791.047 10 0 60559 66600.00000 0 9730454.042 11642770.302 -20444349.298 10 0 60559 67500.00000 0 7158697.123 11168040.506 -21733602.385 10 0 60559 68400.00000 0 4427090.205 10871570.567 -22598499.256 10 0 60559 69300.00000 0 1602148.239 10774606.853 -23022328.849 10 0 60559 70200.00000 0 -1246227.394 10886404.196 -22997036.725 10 0 60559 71100.00000 0 -4047432.253 11203819.233 -22523367.060 10 0 60559 72000.00000 0 -6732865.534 11711448.600 -21610828.476 10 0 60559 72900.00000 0 -9238546.766 12382304.368 -20277485.937 10 0 60559 73800.00000 0 -11507533.614 13178996.178 -18549584.453 10 0 60559 74700.00000 0 -13492040.917 14055368.036 -16461013.723 10 0 60559 75600.00000 0 -15155174.355 14958518.719 -14052625.833 10 0 60559 76500.00000 0 -16472208.846 15831118.915 -11371420.872 10 0 60559 77400.00000 0 -17431361.286 16613926.151 -8469617.685 10 0 60559 78300.00000 0 -18034028.656 17248390.898 -5403628.908 10 0 60559 79200.00000 0 -18294484.989 17679243.973 -2232960.954 10 0 60559 80100.00000 0 -18239053.138 17856956.811 980939.317 10 0 60559 81000.00000 0 -17904788.893 17739972.056 4175868.865 10 0 60559 81900.00000 0 -17337734.859 17296611.985 7290061.245 10 0 60559 82800.00000 0 -16590818.787 16506586.046 10263365.593 10 0 60559 83700.00000 0 -15721485.125 15362035.609 13038390.322 10 0 60559 84600.00000 0 -14789158.943 13868073.168 15561591.034 10 0 60559 85500.00000 0 -13852647.633 12042793.973 17784283.426 10 0 60560 0.00000 0 -12967587.905 9916759.646 19663563.456 10 0 60560 900.00000 0 -12184042.799 7531973.200 21163119.877 10 0 60560 1800.00000 0 -11544348.690 4940389.372 22253922.693 10 0 60560 2700.00000 0 -11081299.265 2202016.098 22914778.984 10 0 60560 3600.00000 0 -10816742.569 -617314.164 23132743.608 10 0 60560 4500.00000 0 -10760648.952 -3448414.970 22903378.139 10 0 60560 5400.00000 0 -10910689.330 -6221358.841 22230852.433 10 0 60560 6300.00000 0 -11252342.594 -8868127.172 21127885.733 10 0 60560 7200.00000 0 -11759529.457 -11325189.525 19615526.746 10 0 60560 8100.00000 0 -12395748.450 -13535906.922 17722774.771 10 0 60560 9000.00000 0 -13115668.913 -15452660.056 15486046.728 10 0 60560 9900.00000 0 -13867116.400 -17038613.813 12948497.870 10 0 60560 10800.00000 0 -14593368.945 -18269043.707 10159206.974 10 0 60560 11700.00000 0 -15235668.762 -19132167.452 7172239.773 10 0 60560 12600.00000 0 -15735843.797 -19629445.066 4045607.448 10 0 60560 13500.00000 0 -16038927.885 -19775333.166 840139.645 10 0 60560 14400.00000 0 -16095667.234 -19596502.205 -2381705.998 10 0 60560 15300.00000 0 -15864804.902 -19130548.569 -5557073.828 10 0 60560 16200.00000 0 -15315043.701 -18424255.463 -8623954.225 10 0 60560 17100.00000 0 -14426601.280 -17531476.397 -11522415.522 10 0 60560 18000.00000 0 -13192288.454 -16510731.848 -14195797.463 10 0 60560 18900.00000 0 -11618062.363 -15422622.446 -16591840.551 10 0 60560 19800.00000 0 -9723028.823 -14327170.240 -18663727.041 10 0 60560 20700.00000 0 -7538892.218 -13281202.746 -20371011.351 10 0 60560 21600.00000 0 -5108875.319 -12335892.550 -21680420.298 10 0 60560 22500.00000 0 -2486154.374 -11534558.117 -22566506.741 10 0 60560 23400.00000 0 268124.265 -10910819.864 -23012143.569 10 0 60560 24300.00000 0 3087161.921 -10487189.668 -23008848.752 10 0 60560 25200.00000 0 5901061.689 -10274152.877 -22556935.938 10 0 60560 26100.00000 0 8639511.033 -10269780.350 -21665488.891 10 0 60560 27000.00000 0 11234480.194 -10459885.033 -20352161.798 10 0 60560 27900.00000 0 13622823.611 -10818714.172 -18642811.022 10 0 60560 28800.00000 0 15748676.312 -11310145.457 -16570967.271 10 0 60560 29700.00000 0 17565546.461 -11889334.147 -14177160.149 10 0 60560 30600.00000 0 19038018.700 -12504739.454 -11508109.845 10 0 60560 31500.00000 0 20142999.625 -13100442.881 -8615803.058 10 0 60560 32400.00000 0 20870456.346 -13618659.451 -5556472.256 10 0 60560 33300.00000 0 21223620.479 -14002335.328 -2389498.831 10 0 60560 34200.00000 0 21218652.179 -14197722.311 823738.104 10 0 60560 35100.00000 0 20883781.272 -14156821.307 4021044.974 10 0 60560 36000.00000 0 20257963.871 -13839592.951 7140606.591 10 0 60560 36900.00000 0 19389112.532 -13215843.646 10122166.296 10 0 60560 37800.00000 0 18331975.115 -12266709.109 12908171.851 10 0 60560 38700.00000 0 17145751.304 -10985674.315 15444866.535 10 0 60560 39600.00000 0 15891545.997 -9379087.804 17683306.138 10 0 60560 40500.00000 0 14629764.856 -7466148.955 19580284.208 10 0 60560 41400.00000 0 13417559.188 -5278368.111 21099149.591 10 0 60560 42300.00000 0 12306425.067 -2858520.689 22210502.189 10 0 60560 43200.00000 0 11340055.117 -259136.629 22892754.907 10 0 60560 44100.00000 0 10552531.117 2459414.764 23132551.796 10 0 60560 45000.00000 0 9966931.916 5231168.194 22925034.571 10 0 60560 45900.00000 0 9594414.479 7987044.183 22273951.983 10 0 60560 46800.00000 0 9433806.871 10657469.512 21191608.811 10 0 60560 47700.00000 0 9471731.382 13175030.259 19698653.825 10 0 60560 48600.00000 0 9683254.308 15477049.359 17823708.610 10 0 60560 49500.00000 0 10033037.271 17507982.801 15602841.999 10 0 60560 50400.00000 0 10476943.879 19221535.048 13078897.726 10 0 60560 51300.00000 0 10964036.127 20582404.952 10300685.950 10 0 60560 52200.00000 0 11438877.909 21567587.991 7322052.275 10 0 60560 53100.00000 0 11844049.178 22167178.523 4200840.917 10 0 60560 54000.00000 0 12122764.399 22384636.423 997771.398 10 0 60560 54900.00000 0 12221483.480 22236504.967 -2224749.383 10 0 60560 55800.00000 0 12092402.706 21751590.257 -5403855.799 10 0 60560 56700.00000 0 11695717.583 20969635.824 -8477467.473 10 0 60560 57600.00000 0 11001558.663 19939548.054 -11385522.433 10 0 60560 58500.00000 0 9991515.174 18717247.921 -14071173.080 10 0 60560 59400.00000 0 8659678.927 17363241.030 -16481919.273 10 0 60560 60300.00000 0 7013161.697 15940010.379 -18570654.228 10 0 60560 61200.00000 0 5072062.242 14509344.082 -20296600.830 10 0 60560 62100.00000 0 2868883.055 13129712.975 -21626118.673 10 0 60560 63000.00000 0 447420.856 11853810.586 -22533365.212 10 0 60560 63900.00000 0 -2138822.366 10726360.563 -23000797.780 10 0 60560 64800.00000 0 -4828640.439 9782284.555 -23019507.036 10 0 60560 65700.00000 0 -7555451.395 9045307.505 -22589376.126 10 0 60560 66600.00000 0 -10249854.641 8527058.072 -21719063.660 10 0 60560 67500.00000 0 -12842309.126 8226700.223 -20425812.402 10 0 60560 68400.00000 0 -15265820.136 8131109.132 -18735089.072 10 0 60560 69300.00000 0 -17458522.516 8215581.186 -16680064.043 10 0 60560 70200.00000 0 -19366053.143 8445045.289 -14300942.819 10 0 60560 71100.00000 0 -20943614.978 8775721.603 -11644163.850 10 0 60560 72000.00000 0 -22157648.422 9157155.373 -8761479.721 10 0 60560 72900.00000 0 -22987042.651 9534538.132 -5708940.666 10 0 60560 73800.00000 0 -23423839.143 9851217.123 -2545800.950 10 0 60560 74700.00000 0 -23473400.942 10051286.503 666630.213 10 0 60560 75600.00000 0 -23154043.436 10082151.202 3866170.909 10 0 60560 76500.00000 0 -22496144.635 9896956.015 6990959.456 10 0 60560 77400.00000 0 -21540774.182 9456778.716 9980635.711 10 0 60560 78300.00000 0 -20337899.716 8732496.210 12777489.149 10 0 60560 79200.00000 0 -18944246.138 7706246.512 15327553.102 10 0 60560 80100.00000 0 -17420896.941 6372426.163 17581625.803 10 0 60560 81000.00000 0 -15830736.820 4738181.708 19496200.472 10 0 60560 81900.00000 0 -14235840.705 2823374.412 21034288.452 10 0 60560 82800.00000 0 -12694916.232 660018.670 22166121.180 10 0 60560 83700.00000 0 -11260904.215 -1708784.334 22869718.900 10 0 60560 84600.00000 0 -9978835.243 -4230375.851 23131316.020 10 0 60560 85500.00000 0 -8884030.236 -6844471.141 22945635.181 10 0 60561 0.00000 0 -8000719.113 -9485416.242 22316004.476 10 0 60561 900.00000 0 -7341134.520 -12084680.988 21254314.073 10 0 60561 1800.00000 0 -6905120.078 -14573484.209 19780812.360 10 0 60561 2700.00000 0 -6680269.108 -16885449.193 17923742.307 10 0 60561 3600.00000 0 -6642590.851 -18959177.156 15718823.334 10 0 60561 4500.00000 0 -6757677.617 -20740633.679 13208585.942 10 0 60561 5400.00000 0 -6982325.780 -22185248.189 10441569.606 10 0 60561 6300.00000 0 -7266543.896 -23259637.732 7471397.439 10 0 60561 7200.00000 0 -7555864.258 -23942881.159 4355744.091 10 0 60561 8100.00000 0 -7793860.436 -24227288.163 1155216.181 10 0 60561 9000.00000 0 -7924763.674 -24118628.611 -2067833.065 10 0 60561 9900.00000 0 -7896065.819 -23635810.514 -5250531.080 10 0 60561 10800.00000 0 -7660996.212 -22810018.583 -8330729.845 10 0 60561 11700.00000 0 -7180764.721 -21683348.869 -11248240.234 10 0 60561 12600.00000 0 -6426472.707 -20306996.956 -13946030.428 10 0 60561 13500.00000 0 -5380607.862 -18739076.882 -16371362.672 10 0 60561 14400.00000 0 -4038056.758 -17042164.146 -18476843.958 10 0 60561 15300.00000 0 -2406589.977 -15280668.283 -20221368.144 10 0 60561 16200.00000 0 -506797.638 -13518147.760 -21570929.701 10 0 60561 17100.00000 0 1628522.896 -11814682.209 -22499292.270 10 0 60561 18000.00000 0 3955501.599 -10224414.156 -22988498.688 10 0 60561 18900.00000 0 6420804.588 -8793364.542 -23029212.809 10 0 60561 19800.00000 0 8963648.833 -7557613.957 -22620887.235 10 0 60561 20700.00000 0 11518137.304 -6541925.328 -21771754.891 10 0 60561 21600.00000 0 14015815.754 -5758864.288 -20498646.138 10 0 60561 22500.00000 0 16388343.402 -5208451.886 -18826636.629 10 0 60561 23400.00000 0 18570165.455 -4878361.376 -16788534.588 10 0 60561 24300.00000 0 20501075.932 -4744647.632 -14424219.201 10 0 60561 25200.00000 0 22128564.496 -4772975.273 -11779844.565 10 0 60561 26100.00000 0 23409850.589 -4920290.806 -8906926.165 10 0 60561 27000.00000 0 24313521.829 -5136865.756 -5861328.701 10 0 60561 27900.00000 0 24820710.590 -5368622.748 -2702175.774 10 0 60561 28800.00000 0 24925762.159 -5559645.214 509296.967 10 0 60561 29700.00000 0 24636369.263 -5654764.454 3710922.917 10 0 60561 30600.00000 0 23973169.774 -5602115.186 6840797.417 10 0 60561 31500.00000 0 22968826.522 -5355552.670 9838460.088 10 0 60561 32400.00000 0 21666629.124 -4876830.786 12646045.010 10 0 60561 33300.00000 0 20118677.000 -4137450.696 15209378.039 10 0 60561 34200.00000 0 18383719.403 -3120103.575 17479001.863 10 0 60561 35100.00000 0 16524741.801 -1819647.640 19411110.934 10 0 60561 36000.00000 0 14606397.760 -243578.700 20968380.196 10 0 60561 36900.00000 0 12692391.412 1588026.026 22120673.301 10 0 60561 37800.00000 0 10842917.311 3643089.858 22845618.092 10 0 60561 38700.00000 0 9112262.004 5878622.306 23129039.184 10 0 60561 39600.00000 0 7546665.247 8242265.965 22965239.592 10 0 60561 40500.00000 0 6182528.385 10674243.569 22357125.650 10 0 60561 41400.00000 0 5045043.682 13109627.625 21316171.801 10 0 60561 42300.00000 0 4147301.617 15480841.462 19862224.289 10 0 60561 43200.00000 0 3489913.965 17720290.476 18023145.449 10 0 60561 44100.00000 0 3061169.566 19763016.136 15834302.998 10 0 60561 45000.00000 0 2837717.802 21549263.318 13337911.679 10 0 60561 45900.00000 0 2785752.799 23026854.045 10582237.589 10 0 60561 46800.00000 0 2862650.087 24153267.706 7620678.511 10 0 60561 47700.00000 0 3018987.922 24897339.048 4510736.616 10 0 60561 48600.00000 0 3200868.450 25240500.599 1312902.670 10 0 60561 49500.00000 0 3352440.306 25177514.891 -1910526.678 10 0 60561 50400.00000 0 3418514.729 24716663.220 -5096674.715 10 0 60561 51300.00000 0 3347162.467 23879380.929 -8183328.384 10 0 60561 52200.00000 0 3092178.799 22699353.057 -11110173.745 10 0 60561 53100.00000 0 2615309.226 21221107.714 -13819996.795 10 0 60561 54000.00000 0 1888138.381 19498166.571 -16259823.868 10 0 60561 54900.00000 0 893559.174 17590831.210 -18381977.115 10 0 60561 55800.00000 0 -373242.567 15563700.039 -20145022.451 10 0 60561 56700.00000 0 -1904331.544 13483022.122 -21514590.023 10 0 60561 57600.00000 0 -3679115.111 11414001.063 -22464050.211 10 0 60561 58500.00000 0 -5664980.706 9418163.969 -22975031.647 10 0 60561 59400.00000 0 -7818451.632 7550907.136 -23037771.388 10 0 60561 60300.00000 0 -10086811.997 5859321.876 -22651291.195 10 0 60561 61200.00000 0 -12410131.560 4380391.375 -21823397.661 10 0 60561 62100.00000 0 -14723604.443 3139632.895 -20570507.711 10 0 60561 63000.00000 0 -16960102.725 2150240.175 -18917304.543 10 0 60561 63900.00000 0 -19052837.201 1412759.282 -16896232.502 10 0 60561 64800.00000 0 -20938013.681 915308.237 -14546842.439 10 0 60561 65700.00000 0 -22557373.926 634327.761 -11915001.907 10 0 60561 66600.00000 0 -23860515.768 535828.164 -9051986.967 10 0 60561 67500.00000 0 -24806896.763 577076.849 -6013474.415 10 0 60561 68400.00000 0 -25367439.477 708652.793 -2858454.804 10 0 60561 69300.00000 0 -25525673.457 876779.616 351912.149 10 0 60561 70200.00000 0 -25278368.531 1025837.801 3555477.519 10 0 60561 71100.00000 0 -24635635.268 1100949.883 6690296.020 10 0 60561 72000.00000 0 -23620490.436 1050530.035 9695809.384 10 0 60561 72900.00000 0 -22267907.179 828691.563 12513998.605 10 0 60561 73800.00000 0 -20623390.492 397412.242 15090484.304 10 0 60561 74700.00000 0 -18741137.582 -271632.303 17375555.740 10 0 60561 75600.00000 0 -16681859.247 -1195643.067 19325110.524 10 0 60561 76500.00000 0 -14510351.667 -2379739.174 20901488.875 10 0 60561 77400.00000 0 -12292917.805 -3816506.617 22074188.012 10 0 60561 78300.00000 0 -10094743.389 -5486073.935 22820444.388 10 0 60561 79200.00000 0 -7977334.122 -7356713.344 23125673.468 10 0 60561 80100.00000 0 -5996118.383 -9385944.625 22983758.910 10 0 60561 81000.00000 0 -4198313.099 -11522098.745 22397185.278 10 0 60561 81900.00000 0 -2621140.168 -13706279.404 21377010.739 10 0 60561 82800.00000 0 -1290467.004 -15874644.110 19942678.658 10 0 60561 83700.00000 0 -219927.845 -17960912.812 18121669.639 10 0 60561 84600.00000 0 589436.785 -19899001.981 15948998.276 10 0 60561 85500.00000 0 1149006.190 -21625675.875 13466561.834 10 0 60562 0.00000 0 1481876.978 -23083104.743 10722351.273 10 0 60562 900.00000 0 1621659.994 -24221223.384 7769536.295 10 0 60562 1800.00000 0 1610825.706 -24999788.011 4665444.367 10 0 60562 2700.00000 0 1498667.578 -25390045.708 1470447.782 10 0 60562 3600.00000 0 1338968.931 -25375941.748 -1753216.114 10 0 60562 4500.00000 0 1187472.877 -24954812.108 -4942669.261 10 0 60562 5400.00000 0 1099263.979 -24137529.310 -8035636.408 10 0 60562 6300.00000 0 1126174.802 -22948093.342 -10971681.657 10 0 60562 7200.00000 0 1314330.031 -21422683.447 -13693411.645 10 0 60562 8100.00000 0 1701935.266 -19608210.158 -16147619.522 10 0 60562 9000.00000 0 2317407.155 -17560428.732 -18286345.148 10 0 60562 9900.00000 0 3177926.735 -15341694.348 -20067828.780 10 0 60562 10800.00000 0 4288479.360 -13018454.945 -21457338.167 10 0 60562 11700.00000 0 5641423.309 -10658588.730 -22427851.925 10 0 60562 12600.00000 0 7216606.077 -8328699.847 -22960585.498 10 0 60562 13500.00000 0 8982023.511 -6091486.960 -23045349.678 10 0 60562 14400.00000 0 10894993.570 -4003295.790 -22680735.424 10 0 60562 15300.00000 0 12903794.336 -2111958.151 -21874122.586 10 0 60562 16200.00000 0 14949696.275 -455007.108 -20641513.816 10 0 60562 17100.00000 0 16969302.215 941658.737 -19007198.622 10 0 60562 18000.00000 0 18897095.789 2064608.364 -17003255.840 10 0 60562 18900.00000 0 20668090.785 2913177.078 -14668905.988 10 0 60562 19800.00000 0 22220470.147 3499221.822 -12049727.676 10 0 60562 20700.00000 0 23498104.347 3846346.959 -9196754.798 10 0 60562 21600.00000 0 24452844.533 3988636.509 -6165473.171 10 0 60562 22500.00000 0 25046495.826 3968949.195 -3014736.986 10 0 60562 23400.00000 0 25252389.927 3836850.515 194373.439 10 0 60562 24300.00000 0 25056493.282 3646270.576 3399730.340 10 0 60562 25200.00000 0 24458006.534 3452987.234 6539351.196 10 0 60562 26100.00000 0 23469432.133 3312040.638 9552583.029 10 0 60562 27000.00000 0 22116108.830 3275187.476 12381256.633 10 0 60562 27900.00000 0 20435233.504 3388500.970 14970789.926 10 0 60562 28800.00000 0 18474411.444 3690216.259 17271220.880 10 0 60562 29700.00000 0 16289795.070 4208910.347 19238152.016 10 0 60562 30600.00000 0 13943887.378 4962092.017 20833590.179 10 0 60562 31500.00000 0 11503099.703 5955260.295 22026667.126 10 0 60562 32400.00000 0 9035162.934 7181471.120 22794228.499 10 0 60562 33300.00000 0 6606497.173 8621431.381 23121280.790 10 0 60562 34200.00000 0 4279646.480 10244118.211 23001288.064 10 0 60562 35100.00000 0 2110882.878 12007900.224 22436312.448 10 0 60562 36000.00000 0 148077.283 13862116.961 21436994.728 10 0 60562 36900.00000 0 -1571075.332 15749053.868 20022373.851 10 0 60562 37800.00000 0 -3020403.168 17606233.581 18219546.745 10 0 60562 38700.00000 0 -4186120.860 19368930.583 16063172.591 10 0 60562 39600.00000 0 -5067171.811 20972806.191 13594828.596 10 0 60562 40500.00000 0 -5675034.047 22356554.788 10862227.281 10 0 60562 41400.00000 0 -6032996.222 23464450.568 7918308.312 10 0 60562 42300.00000 0 -6174932.819 24248687.050 4820220.948 10 0 60562 43200.00000 0 -6143629.109 24671409.323 1628215.951 10 0 60562 44100.00000 0 -5988726.089 24706351.071 -1595531.665 10 0 60562 45000.00000 0 -5764372.552 24340004.611 -4788145.436 10 0 60562 45900.00000 0 -5526684.730 23572271.777 -7887290.690 10 0 60562 46800.00000 0 -5331122.929 22416565.590 -10832412.113 10 0 60562 47700.00000 0 -5229898.756 20899356.381 -13565939.239 10 0 60562 48600.00000 0 -5269525.621 19059180.180 -16034433.967 10 0 60562 49500.00000 0 -5488619.216 16945150.659 -18189655.454 10 0 60562 50400.00000 0 -5916043.842 14615037.557 -19989519.557 10 0 60562 51300.00000 0 -6569485.352 12132993.361 -21398932.559 10 0 60562 52200.00000 0 -7454512.749 9567025.111 -22390481.940 10 0 60562 53100.00000 0 -8564169.050 6986318.991 -22944970.273 10 0 60562 54000.00000 0 -9879108.935 4458531.227 -23051782.074 10 0 60562 54900.00000 0 -11368276.942 2047159.747 -22709077.157 10 0 60562 55800.00000 0 -12990096.692 -190893.031 -21923807.899 10 0 60562 56700.00000 0 -14694119.770 -2207464.780 -20711561.568 10 0 60562 57600.00000 0 -16423063.509 -3964896.806 -19096232.471 10 0 60562 58500.00000 0 -18115150.640 -5437344.891 -17109532.080 10 0 60562 59400.00000 0 -19706651.422 -6611585.383 -14790348.416 10 0 60562 60300.00000 0 -21134520.838 -7487286.158 -12183968.768 10 0 60562 61200.00000 0 -22339019.955 -8076734.688 -9341182.332 10 0 60562 62100.00000 0 -23266211.845 -8404038.284 -6317281.348 10 0 60562 63000.00000 0 -23870228.300 -8503833.496 -3170981.014 10 0 60562 63900.00000 0 -24115213.637 -8419561.813 36720.365 10 0 60562 64800.00000 0 -23976865.855 -8201386.397 3243718.786 10 0 60562 65700.00000 0 -23443512.431 -7903838.965 6387997.053 10 0 60562 66600.00000 0 -22516677.508 -7583296.422 9408809.987 10 0 60562 67500.00000 0 -21211118.295 -7295393.284 12247840.608 10 0 60562 68400.00000 0 -19554330.202 -7092477.905 14850306.423 10 0 60562 69300.00000 0 -17585541.809 -7021218.205 17165996.226 10 0 60562 70200.00000 0 -15354241.275 -7120456.041 19150219.294 10 0 60562 71100.00000 0 -12918294.454 -7419398.912 20764650.635 10 0 60562 72000.00000 0 -10341731.311 -7936223.844 21978057.721 10 0 60562 72900.00000 0 -7692290.230 -8677151.526 22766896.168 10 0 60562 73800.00000 0 -5038819.519 -9636029.777 23115763.898 10 0 60562 74700.00000 0 -2448641.137 -10794444.928 23017705.410 10 0 60562 75600.00000 0 15016.635 -12122358.402 22474360.071 10 0 60562 76500.00000 0 2295413.343 -13579244.445 21495950.649 10 0 60562 77400.00000 0 4344419.542 -15115684.479 20101110.741 10 0 60562 78300.00000 0 6124281.731 -16675354.493 18316552.392 10 0 60562 79200.00000 0 7608955.780 -18197325.292 16176577.875 10 0 60562 80100.00000 0 8784952.673 -19618581.629 13722442.560 10 0 60562 81000.00000 0 9651660.199 -20876656.274 11001578.713 10 0 60562 81900.00000 0 10221125.684 -21912269.126 8066693.126 10 0 60562 82800.00000 0 10517307.387 -22671860.045 4974754.505 10 0 60562 83700.00000 0 10574824.798 -23109907.511 1785889.305 10 0 60562 84600.00000 0 10437259.674 -23190933.230 -1437792.685 10 0 60562 85500.00000 0 10155079.402 -22891105.384 -4633419.543 99